Flag for U.S.A. Weather past 2 weeks in Jacksonville, North Carolina, U.S.A.

Now
87 °F

Light rain. Mostly cloudy.


Feels Like: 91 °F
Forecast: 72 / 90 °F
Wind: 5 mph from Southwest

Location: Jacksonville - New River

Current Time: Aug 2, 2015 at 2:52:09 PM

Latest Report: Aug 2, 2015 at 1:56 PM


Visibility: 10 mi

Pressure: 29.94 "Hg

Humidity: 55%

Dew point: 69 °F

Location of JacksonvilleLocation

Historic Weather in Jacksonville — Graph

°F

Jacksonville temperature yesterday

Maximum temperature yesterday: 90 °F (at 2:56 PM)
Minimum temperature yesterday: 74 °F (at 6:56 AM)
Average temperature yesterday: 81 °F

Past Weeks' High & Low Weather Summary

 TemperatureHumidityPressure
High95 °F (Jul 21, 2:56 PM)97% (Jul 30, 6:58 AM)30.03 "Hg (Jul 30, 6:58 AM)
Low66 °F (Jul 25, 4:56 AM)37% (Jul 25, 4:56 PM)29.70 "Hg (Jul 21, 4:56 PM)
Average81 °F75%29.92 "Hg
* Reported Jul 18 1:56 PM — Aug 2 1:56 PM, Jacksonville, Weather by CustomWeather, © 2015

Note: Actual official high and low records may vary slightly from our data, if they occured in-between our weather recording intervals... More about our weather records

Advertising

Jacksonville weather history for previous 24 hours

 ConditionsComfort  
Time TempWeatherWind HumidityBarometerVisibility
1:56 PM
Sun, Aug 2
87 °FLight rain. Mostly cloudy.5 mph55%29.94 "Hg10 mi
12:56 PM89 °FOvercast.7 mph55%29.94 "Hg10 mi
11:56 AM90 °FSunny.6 mph56%29.95 "Hg10 mi
10:56 AM87 °FSunny.3 mph63%29.95 "Hg10 mi
9:56 AM85 °FSunny.No wind65%29.94 "Hg10 mi
8:56 AM81 °FSunny.5 mph77%29.94 "Hg10 mi
7:56 AM77 °FPassing clouds.6 mph85%29.93 "Hg10 mi
6:56 AM74 °FFog.No wind94%29.92 "Hg6 mi
5:56 AM73 °FPassing clouds.No wind94%29.90 "Hg9 mi
4:56 AM73 °FPassing clouds.No wind94%29.91 "Hg10 mi
3:56 AM74 °FClear.3 mph94%29.90 "Hg10 mi
2:56 AM74 °FClear.3 mph94%29.91 "Hg10 mi
1:56 AM75 °FClear.3 mph90%29.92 "Hg10 mi
12:56 AM76 °FClear.No wind88%29.93 "Hg10 mi
11:56 PM
Sat, Aug 1
77 °FClear.5 mph85%29.93 "Hg10 mi
10:56 PM77 °FClear.3 mph88%29.92 "Hg10 mi
9:56 PM78 °FClear.3 mph87%29.92 "Hg10 mi
8:56 PM79 °FSunny.5 mph88%29.90 "Hg10 mi
7:56 PM81 °FSunny.7 mph82%29.88 "Hg10 mi
6:56 PM84 °FSunny.8 mph72%29.88 "Hg10 mi
5:56 PM86 °FSunny.8 mph70%29.87 "Hg10 mi
4:56 PM87 °FSunny.14 mph67%29.87 "Hg10 mi
3:56 PM90 °FScattered clouds.8 mph57%29.88 "Hg10 mi
2:56 PM90 °FPartly sunny.7 mph54%29.89 "Hg10 mi
Weather by CustomWeather, © 2015

See weather overviewHow to use our weather pages